KART

Watertown International Airport

Airport
ICAO code
KART
Summary
ICAO Region
NAM
ICAO Territory
Location

Watertown, New York,

Coordinates
43° 59' 30" N , 76° 1' 18" W
KCC
Airport GND
Aircraft Ground De/Anti Icing
Airport RE
Landing on Contaminated Runways
Airport WX
Lake Effect Snow
Metar
KART 151156Z AUTO 21005KT 10SM OVC012 24/22 A2985 RMK AO2 SLP102 T02440217 10244 20217 51001 $

Description

Watertown International Airport is a public use airport located 9 km west of the central business district of Watertown, in Jefferson County, New York.

Climatology

Humid Continental climate (Köppen climate classification Dfb) - Variable weather patterns and a large seasonal temperature variance. Summers are often warm and humid with frequent thunderstorms and winters can be very cold with frequent snowfall and persistent snow cover.

Airport map

Aerial View

SKYbrary Partners:

Safety knowledge contributed by: